"2016-01-18 00:00:00",1294491,6.888,316.9,11.73,1.25,9.3,101.2732,2.548,3.915,30.72,0,109.9,13.28,3.31,278.9
"2016-01-18 00:00:30",1294492,6.321,311.2,7.904,1.365,8.09,101.2602,2.515,3.795,30.01,0,109.9,13.28,3.28,273.2
"2016-01-18 00:01:00",1294493,6.926,316.5,8.15,1.249,7.97,101.2617,2.518,3.705,29.98,0,109.9,13.28,3.28,278.5
"2016-01-18 00:01:30",1294494,7.873,318.6,6.882,1.456,8.78,101.2645,2.526,3.843,30.28,0,109.9,13.29,3.29,280.6
"2016-01-18 00:02:00",1294495,8.11,321.9,6.412,1.364,9.54,101.2538,2.498,3.813,30.7,0,109.9,13.29,3.26,283.9
"2016-01-18 00:02:30",1294496,8.16,318.5,7.102,1.452,9.22,101.2462,2.479,3.801,30.59,0,109.9,13.28,3.24,280.5
"2016-01-18 00:03:00",1294497,7.963,321.1,6.626,1.338,8.74,101.2386,2.46,3.804,30.6,0,109.8,13.28,3.22,283.1
"2016-01-18 00:03:30",1294498,8.07,323,7.507,1.267,9.27,101.2383,2.459,3.796,30.63,0,109.8,13.29,3.22,285.0
"2016-01-18 00:04:00",1294499,7.27,317.5,9.58,1.504,8.35,101.2395,2.462,3.645,30.11,0,109.8,13.28,3.22,279.5
"2016-01-18 00:04:30",1294500,6.273,321.5,9.49,1.619,8.21,101.2383,2.459,3.655,29.54,0,109.8,13.29,3.22,283.5
"2016-01-18 00:05:00",1294501,6.279,319.5,8.09,1.338,8.13,101.2344,2.449,3.702,29.57,0,109.8,13.29,3.21,281.5
"2016-01-18 00:05:30",1294502,7.971,325.3,6.584,1.333,9.38,101.2299,2.437,3.717,30.06,0,109.8,13.28,3.20,287.3
"2016-01-18 00:06:00",1294503,7.308,324.8,7.334,1.486,8.87,101.2296,2.437,3.736,30.43,0,109.9,13.29,3.20,286.8
"2016-01-18 00:06:30",1294504,7.02,332.2,7.071,1.359,9.06,101.2259,2.427,3.687,30.45,0,109.8,13.29,3.19,294.2
"2016-01-18 00:07:00",1294505,5.669,322.7,10.55,1.285,6.973,101.2308,2.44,3.606,30.04,0,109.8,13.29,3.20,284.7
"2016-01-18 00:07:30",1294506,7.162,323.2,6.764,1.411,7.722,101.2229,2.42,3.599,30.77,0,109.8,13.29,3.18,285.2
"2016-01-18 00:08:00",1294507,7.437,327.2,7.803,1.288,8.8,101.215,2.399,3.626,30.64,0,109.8,13.29,3.16,289.2
"2016-01-18 00:08:30",1294508,6.766,329.6,7.624,1.38,8.22,101.2147,2.399,3.646,30.52,0,109.8,13.3,3.16,291.6
"2016-01-18 00:09:00",1294509,7.16,334.1,6.808,1.346,8.02,101.2159,2.402,3.638,30.89,0,109.8,13.3,3.16,296.1
"2016-01-18 00:09:30",1294510,6.634,335.9,6.901,1.309,8.24,101.2187,2.409,3.63,31.37,0,109.8,13.3,3.17,297.9
"2016-01-18 00:10:00",1294511,5.788,334,6.344,1.292,7.031,101.2153,2.4,3.614,31.55,0,109.8,13.3,3.16,296.0
"2016-01-18 00:10:30",1294512,6.388,338.6,6.906,1.393,8.39,101.2077,2.381,3.564,31.37,0,109.8,13.3,3.14,300.6
"2016-01-18 00:11:00",1294513,5.618,331.4,7.49,1.366,8.31,101.2012,2.364,3.608,30.86,0,109.8,13.3,3.12,293.4
"2016-01-18 00:11:30",1294514,4.993,327.3,7.574,1.348,7.853,101.1888,2.332,3.587,30.6,0,109.8,13.3,3.09,289.3
"2016-01-18 00:12:00",1294515,5.976,337.6,7.617,1.45,8.67,101.1876,2.33,3.593,30.59,0,109.8,13.3,3.09,299.6
"2016-01-18 00:12:30",1294516,5.899,336.9,7.022,1.338,7.905,101.1876,2.33,3.536,30.57,0,109.8,13.3,3.09,298.9
"2016-01-18 00:13:00",1294517,5.95,332.6,5.779,1.227,8.53,101.182,2.315,3.561,30.49,0,109.8,13.3,3.08,294.6
"2016-01-18 00:13:30",1294518,6.093,336.1,7.439,1.385,8.6,101.1645,2.27,3.531,30.32,0,109.8,13.3,3.03,298.1
"2016-01-18 00:14:00",1294519,5.525,334.5,5.879,1.315,7.667,101.1546,2.245,3.49,30.22,0,109.8,13.31,3.01,296.5
"2016-01-18 00:14:30",1294520,5.883,340.6,6.461,1.417,8.56,101.1537,2.243,3.475,30.19,0,109.8,13.3,3.00,302.6
"2016-01-18 00:15:00",1294521,4.895,338.3,8.12,1.282,7.177,101.1543,2.244,3.419,30.2,0,109.8,13.31,3.00,300.3
"2016-01-18 00:15:30",1294522,5.136,339.5,7.267,1.39,8.26,101.1546,2.245,3.564,30.41,0,109.8,13.31,3.01,301.5
"2016-01-18 00:16:00",1294523,4.985,336.6,7.735,1.399,8.01,101.1554,2.247,3.422,30.34,0,109.8,13.31,3.01,298.6
"2016-01-18 00:16:30",1294524,5.185,325.7,9.23,1.352,7.794,101.1532,2.242,3.454,30.5,0,109.8,13.31,3.00,287.7
"2016-01-18 00:17:00",1294525,5.806,313.8,6.313,1.431,8.28,101.1487,2.23,3.447,30.65,0,109.8,13.31,2.99,275.8
"2016-01-18 00:17:30",1294526,5.803,310.3,7.624,1.453,8.04,101.1431,2.216,3.412,31.06,0,109.8,13.31,2.98,272.3
"2016-01-18 00:18:00",1294527,6.077,318.4,10.63,1.346,8.83,101.1355,2.196,3.506,31.52,0,109.8,13.31,2.96,280.4
"2016-01-18 00:18:30",1294528,6.584,324.6,7.396,1.392,9.01,101.1378,2.202,3.479,31.16,0,109.8,13.31,2.96,286.6
"2016-01-18 00:19:00",1294529,6.834,319.6,7.71,1.521,8.41,101.1364,2.199,3.483,31.08,0,109.8,13.31,2.96,281.6
"2016-01-18 00:19:30",1294530,6.595,319,6.733,1.328,7.836,101.1375,2.202,3.411,31,0,109.7,13.3,2.96,281.0
"2016-01-18 00:20:00",1294531,7.098,323.3,7.461,1.392,8.75,101.1392,2.206,3.492,31.15,0,109.8,13.3,2.97,285.3
"2016-01-18 00:20:30",1294532,6.532,322,8.2,1.539,7.874,101.1407,2.21,3.405,31.08,0,109.7,13.3,2.97,284.0
"2016-01-18 00:21:00",1294533,6.516,320.2,6.604,1.307,9.19,101.1415,2.212,3.465,31.22,0,109.7,13.3,2.97,282.2
"2016-01-18 00:21:30",1294534,5.826,315.1,6.153,1.389,7.533,101.1441,2.218,3.345,31.36,0,109.7,13.3,2.98,277.1
"2016-01-18 00:22:00",1294535,5.879,317.8,7.115,1.401,8.13,101.1455,2.222,3.41,31.76,0,109.7,13.3,2.98,279.8
"2016-01-18 00:22:30",1294536,5.241,323.7,7.818,1.36,6.707,101.145,2.221,3.441,32.11,0,109.7,13.31,2.98,285.7
"2016-01-18 00:23:00",1294537,5.318,327.7,7.191,1.381,7.502,101.1422,2.214,3.389,32.61,0,109.7,13.3,2.97,289.7
"2016-01-18 00:23:30",1294538,4.558,318.1,6.98,1.312,7.323,101.134,2.193,3.413,32.55,0,109.8,13.31,2.95,280.1
"2016-01-18 00:24:00",1294539,4.517,306.9,7.534,1.346,7.846,101.1337,2.192,3.414,32.37,0,109.7,13.31,2.95,268.9
"2016-01-18 00:24:30",1294540,4.872,309.3,7.35,1.354,8.41,101.1269,2.175,3.41,32.17,0,109.7,13.31,2.93,271.3
"2016-01-18 00:25:00",1294541,5.04,305.6,8.45,1.367,7.76,101.1199,2.157,3.3,31.95,0,109.7,13.31,2.92,267.6
"2016-01-18 00:25:30",1294542,6.324,314.2,10.96,1.567,8.36,101.1199,2.157,3.417,32.05,0,109.7,13.31,2.92,276.2
"2016-01-18 00:26:00",1294543,7.499,320.5,7.793,1.626,7.846,101.1202,2.157,3.291,31.89,0,109.7,13.32,2.92,282.5
"2016-01-18 00:26:30",1294544,7.009,322.5,8.33,1.371,9.11,101.1202,2.157,3.416,32.02,0,109.7,13.32,2.92,284.5
"2016-01-18 00:27:00",1294545,7.014,321.3,7.569,1.257,8.69,101.1185,2.153,3.364,32.21,0,109.7,13.32,2.91,283.3
"2016-01-18 00:27:30",1294546,7.244,321.4,7.992,1.333,8.5,101.1111,2.134,3.389,32.53,0,109.7,13.32,2.89,283.4
"2016-01-18 00:28:00",1294547,7.055,323.3,7.524,1.464,7.722,101.1038,2.116,3.325,32.54,0,109.7,13.32,2.88,285.3
"2016-01-18 00:28:30",1294548,8.62,325.4,7.256,1.6,8.11,101.1029,2.113,3.351,32.45,0,109.7,13.32,2.87,287.4
"2016-01-18 00:29:00",1294549,9.76,327,7.627,1.492,8.97,101.1006,2.108,3.331,32.32,0,109.7,13.32,2.87,289.0
"2016-01-18 00:29:30",1294550,9.27,328.2,10.37,1.622,9.16,101.0981,2.101,3.359,32.28,0,109.7,13.32,2.86,290.2
"2016-01-18 00:30:00",1294551,11.13,328.2,8.48,1.318,10.1,101.1001,2.106,3.4,32.31,0,109.7,13.32,2.87,290.2
"2016-01-18 00:30:30",1294552,9.48,326.9,8.48,1.495,9.69,101.1021,2.111,3.408,32.16,0,109.7,13.32,2.87,288.9
"2016-01-18 00:31:00",1294553,9.38,326.4,7.808,1.707,9.21,101.1021,2.111,3.371,32.4,0,109.7,13.32,2.87,288.4
"2016-01-18 00:31:30",1294554,11.9,321.1,6.802,1.502,9.5,101.1026,2.113,3.396,32.53,0,109.7,13.32,2.87,283.1
"2016-01-18 00:32:00",1294555,10.6,321.2,9.19,1.368,9.44,101.1026,2.113,3.409,32.66,0,109.7,13.32,2.87,283.2
"2016-01-18 00:32:30",1294556,10.31,317.5,8.2,1.305,8.79,101.1021,2.111,3.414,32.81,0,109.7,13.32,2.87,279.5
"2016-01-18 00:33:00",1294557,11.09,322.6,9.65,1.381,9.02,101.1015,2.11,3.387,32.76,0,109.7,13.32,2.87,284.6
"2016-01-18 00:33:30",1294558,10.99,327,9.67,1.452,9.29,101.1012,2.109,3.375,32.92,0,109.8,13.32,2.87,289.0
"2016-01-18 00:34:00",1294559,10.92,327.2,7.415,1.556,9.21,101.0973,2.099,3.402,32.64,0,109.7,13.32,2.86,289.2
"2016-01-18 00:34:30",1294560,10.39,331.8,7.26,1.149,9.03,101.0933,2.089,3.374,32.73,0,109.7,13.32,2.85,293.8
"2016-01-18 00:35:00",1294561,9.63,328.1,6.94,1.344,9.34,101.0914,2.084,3.374,32.89,0,109.7,13.32,2.84,290.1
"2016-01-18 00:35:30",1294562,9.56,331.6,6.43,1.347,8.99,101.0945,2.092,3.399,33.09,0,109.7,13.32,2.85,293.6
"2016-01-18 00:36:00",1294563,10.43,330.6,6.9,1.415,8.66,101.0959,2.096,3.37,33.07,0,109.7,13.32,2.85,292.6
"2016-01-18 00:36:30",1294564,10.34,324.1,7.88,1.345,8.78,101.0982,2.101,3.369,33.17,0,109.7,13.32,2.86,286.1
"2016-01-18 00:37:00",1294565,10.99,325.3,6.466,1.379,9.14,101.0962,2.096,3.377,33.03,0,109.7,13.31,2.86,287.3
"2016-01-18 00:37:30",1294566,12.18,323.1,6.081,1.285,9.57,101.0895,2.079,3.365,32.75,0,109.7,13.31,2.84,285.1
"2016-01-18 00:38:00",1294567,11.89,322.5,7.029,1.26,9.1,101.0872,2.073,3.376,32.71,0,109.7,13.32,2.83,284.5
"2016-01-18 00:38:30",1294568,11.96,322.7,7.294,1.311,9.26,101.0838,2.065,3.351,32.85,0,109.7,13.31,2.82,284.7
"2016-01-18 00:39:00",1294569,12.09,321.9,6.128,1.314,9.32,101.0821,2.06,3.319,32.59,0,109.7,13.31,2.82,283.9
"2016-01-18 00:39:30",1294570,12.26,320.2,7.057,1.281,9.4,101.0839,2.065,3.306,32.77,0,109.7,13.31,2.82,282.2
"2016-01-18 00:40:00",1294571,11.92,319.7,6.102,1.234,9.79,101.0813,2.058,3.327,32.68,0,109.7,13.31,2.82,281.7
"2016-01-18 00:40:30",1294572,12.25,319.6,6.198,1.2,9.67,101.0859,2.07,3.353,32.69,0,109.7,13.32,2.83,281.6
"2016-01-18 00:41:00",1294573,12.68,316.4,6.552,1.232,9.39,101.0856,2.069,3.302,32.53,0,109.7,13.32,2.83,278.4
"2016-01-18 00:41:30",1294574,12.65,317.6,6.39,1.274,9.84,101.083,2.063,3.303,32.45,0,109.7,13.32,2.82,279.6
"2016-01-18 00:42:00",1294575,12.53,320.1,6.359,1.262,10.17,101.089,2.078,3.325,32.35,0,109.7,13.32,2.84,282.1
"2016-01-18 00:42:30",1294576,12.33,319.7,6.233,1.286,10.12,101.1003,2.107,3.327,32.21,0,109.7,13.32,2.87,281.7
"2016-01-18 00:43:00",1294577,12.21,320.9,6.255,1.261,10.08,101.1059,2.121,3.344,32.23,0,109.7,13.32,2.88,282.9
"2016-01-18 00:43:30",1294578,12.06,320.1,6.219,1.244,9.76,101.1057,2.12,3.368,32.19,0,109.7,13.32,2.88,282.1
"2016-01-18 00:44:00",1294579,12.04,319.6,6.273,1.213,9.73,101.1136,2.141,3.333,32.1,0,109.7,13.32,2.90,281.6
"2016-01-18 00:44:30",1294580,12.8,319.7,6.878,1.44,9.98,101.1249,2.169,3.362,32.13,0,109.7,13.32,2.93,281.7
"2016-01-18 00:45:00",1294581,13.64,319.7,6.126,1.255,9.79,101.1396,2.207,3.424,32.31,0,109.7,13.32,2.97,281.7
"2016-01-18 00:45:30",1294582,13.23,320.3,6.843,1.296,9.84,101.1419,2.213,3.407,32.32,0,109.7,13.33,2.97,282.3
"2016-01-18 00:46:00",1294583,13,318.5,6.372,1.296,9.86,101.1495,2.232,3.439,32.34,0,109.7,13.32,2.99,280.5
"2016-01-18 00:46:30",1294584,12.95,318.5,6.513,1.265,9.55,101.1558,2.248,3.452,32.31,0,109.7,13.32,3.01,280.5
"2016-01-18 00:47:00",1294585,12.51,319.9,6.517,1.266,9.82,101.1643,2.27,3.466,32.4,0,109.7,13.32,3.03,281.9
"2016-01-18 00:47:30",1294586,12.32,318.8,6.398,1.365,9.48,101.1708,2.287,3.48,32.58,0,109.7,13.32,3.05,280.8
"2016-01-18 00:48:00",1294587,11.95,319.1,6.457,1.351,8.86,101.1787,2.307,3.457,32.7,0,109.7,13.32,3.07,281.1
"2016-01-18 00:48:30",1294588,12.57,317.8,7.273,1.279,9.52,101.1731,2.292,3.481,32.68,0,109.7,13.32,3.05,279.8
"2016-01-18 00:49:00",1294589,13.07,317.2,6.09,1.195,9.9,101.1691,2.282,3.499,32.43,0,109.7,13.32,3.04,279.2
"2016-01-18 00:49:30",1294590,13.06,318.8,6.497,1.262,9.86,101.1688,2.282,3.497,32.32,0,109.7,13.33,3.04,280.8
"2016-01-18 00:50:00",1294591,13.49,319.4,6.333,1.24,10.1,101.1703,2.285,3.512,32.32,0,109.7,13.33,3.05,281.4
"2016-01-18 00:50:30",1294592,12.98,319.3,6.462,1.25,9.85,101.1742,2.295,3.504,32.23,0,109.7,13.33,3.06,281.3
"2016-01-18 00:51:00",1294593,12.83,317,6.69,1.212,9.93,101.1796,2.309,3.496,32.11,0,109.7,13.33,3.07,279.0
"2016-01-18 00:51:30",1294594,12.26,318.9,6.709,1.273,10.03,101.1813,2.313,3.519,32.19,0,109.7,13.33,3.07,280.9
"2016-01-18 00:52:00",1294595,11.8,320.6,6.857,1.381,9.91,101.1813,2.313,3.545,32.31,0,109.7,13.33,3.07,282.6
"2016-01-18 00:52:30",1294596,12.43,321.9,6.105,1.223,9.97,101.181,2.313,3.566,32.31,0,109.7,13.32,3.07,283.9
"2016-01-18 00:53:00",1294597,12.45,321.3,6.433,1.193,9.56,101.1813,2.313,3.536,32.31,0,109.7,13.32,3.07,283.3
"2016-01-18 00:53:30",1294598,11.84,322.2,6.552,1.31,9.41,101.1822,2.316,3.546,32.36,0,109.7,13.32,3.08,284.2
"2016-01-18 00:54:00",1294599,12.4,321.7,6.352,1.282,9.9,101.1819,2.315,3.548,32.4,0,109.7,13.32,3.08,283.7
"2016-01-18 00:54:30",1294600,12.42,323.6,6.309,1.25,10.01,101.1813,2.313,3.58,32.4,0,109.7,13.32,3.07,285.6
"2016-01-18 00:55:00",1294601,11.79,323.9,6.791,1.336,9.88,101.1836,2.319,3.563,32.44,0,109.7,13.32,3.08,285.9
"2016-01-18 00:55:30",1294602,11.88,324.5,6.475,1.277,9.61,101.185,2.323,3.587,32.45,0,109.7,13.32,3.08,286.5
"2016-01-18 00:56:00",1294603,12.24,322.2,6.645,1.257,9.54,101.1861,2.326,3.575,32.47,0,109.7,13.32,3.09,284.2
"2016-01-18 00:56:30",1294604,12.85,318.9,7.237,1.362,9.6,101.1853,2.324,3.561,32.5,0,109.7,13.32,3.08,280.9
"2016-01-18 00:57:00",1294605,13.04,320.9,6.49,1.418,9.73,101.1844,2.321,3.584,32.62,0,109.7,13.32,3.08,282.9
"2016-01-18 00:57:30",1294606,13.24,320.5,6.864,1.315,9.62,101.1856,2.324,3.581,32.58,0,109.8,13.32,3.08,282.5
"2016-01-18 00:58:00",1294607,13.34,317.6,6.727,1.23,9.43,101.1844,2.321,3.57,32.62,0,109.7,13.32,3.08,279.6
"2016-01-18 00:58:30",1294608,13.25,317.7,6.3,1.282,9.08,101.1867,2.327,3.595,32.74,0,109.7,13.33,3.09,279.7
"2016-01-18 00:59:00",1294609,13.08,320.3,6.427,1.266,9.56,101.187,2.328,3.562,32.85,0,109.7,13.33,3.09,282.3
"2016-01-18 00:59:30",1294610,12.74,321.2,6.333,1.233,9.6,101.1859,2.325,3.567,32.95,0,109.7,13.33,3.09,283.2
"2016-01-18 01:00:00",1294611,12.47,322.7,6.172,1.179,9.12,101.1737,2.294,3.573,33.1,0,109.7,13.33,3.05,284.7
"2016-01-18 01:00:30",1294612,11.87,322.7,6.418,1.266,8.9,101.1678,2.279,3.569,33.18,0,109.7,13.33,3.04,284.7
"2016-01-18 01:01:00",1294613,11.96,324.6,6.642,1.214,9.07,101.1573,2.252,3.534,33.31,0,109.7,13.33,3.01,286.6
"2016-01-18 01:01:30",1294614,12.44,321.9,6.769,1.308,9.14,101.1536,2.243,3.525,33.54,0,109.7,13.33,3.00,283.9
"2016-01-18 01:02:00",1294615,12.89,323,6.356,1.291,8.85,101.1381,2.203,3.501,33.76,0,109.7,13.33,2.96,285.0
"2016-01-18 01:02:30",1294616,13.14,322.5,6.371,1.221,9.13,101.1194,2.155,3.473,33.91,0,109.7,13.33,2.92,284.5
"2016-01-18 01:03:00",1294617,12.99,320.3,5.978,1.531,9.03,101.1106,2.133,3.454,34.18,0,109.7,13.33,2.89,282.3
"2016-01-18 01:03:30",1294618,13.95,321.4,6.702,1.307,9.04,101.0905,2.082,3.408,33.99,0,109.7,13.33,2.84,283.4
"2016-01-18 01:04:00",1294619,14.15,320.8,6.111,1.26,9.28,101.0809,2.057,3.385,34.08,0,109.7,13.33,2.82,282.8
"2016-01-18 01:04:30",1294620,14.23,321,6.645,1.192,9.63,101.058,1.999,3.356,34.17,0,109.7,13.33,2.76,283.0
"2016-01-18 01:05:00",1294621,14.73,318.6,6.261,1.431,9.24,101.0526,1.985,3.331,34.45,0,109.7,13.33,2.74,280.6
"2016-01-18 01:05:30",1294622,13.84,320.6,6.383,1.287,9.49,101.045,1.966,3.304,34.54,0,109.7,13.33,2.72,282.6
"2016-01-18 01:06:00",1294623,15.15,321.1,6.373,1.297,9.86,101.0317,1.932,3.262,34.17,0,109.7,13.33,2.69,283.1
"2016-01-18 01:06:30",1294624,14.47,321.2,6.552,1.246,9.99,101.0195,1.901,3.239,33.72,0,109.7,13.33,2.66,283.2
"2016-01-18 01:07:00",1294625,13.79,322.2,6.17,1.25,10.14,101.0187,1.898,3.226,33.7,0,109.6,13.33,2.66,284.2
"2016-01-18 01:07:30",1294626,14.4,321.9,6.439,1.277,9.96,101.0187,1.898,3.237,33.66,0,109.7,13.33,2.66,283.9
"2016-01-18 01:08:00",1294627,14.62,321.4,6.019,1.25,9.91,101.0187,1.898,3.217,33.87,0,109.7,13.33,2.66,283.4
"2016-01-18 01:08:30",1294628,14.29,322.2,6.559,1.165,9.65,101.019,1.899,3.192,34.28,0,109.7,13.33,2.66,284.2
"2016-01-18 01:09:00",1294629,14.1,320.9,6.304,1.24,9.51,101.0224,1.908,3.203,33.92,0,109.7,13.33,2.67,282.9
"2016-01-18 01:09:30",1294630,13.94,321.7,6.583,1.391,9.78,101.0291,1.925,3.21,33.98,0,109.7,13.32,2.68,283.7
"2016-01-18 01:10:00",1294631,14.76,320.9,6.502,1.228,10.15,101.0351,1.94,3.213,33.89,0,109.7,13.32,2.70,282.9
"2016-01-18 01:10:30",1294632,15.17,320.4,6.592,1.267,9.91,101.0376,1.947,3.195,33.86,0,109.7,13.32,2.71,282.4
"2016-01-18 01:11:00",1294633,15.03,321,6.083,1.313,9.86,101.0441,1.963,3.227,34.1,0,109.7,13.32,2.72,283.0
"2016-01-18 01:11:30",1294634,14.85,322,6.492,1.19,9.91,101.0524,1.984,3.21,33.84,0,109.7,13.32,2.74,284.0
"2016-01-18 01:12:00",1294635,14.24,322.6,6.407,1.33,10.06,101.0526,1.985,3.201,33.56,0,109.7,13.32,2.74,284.6
"2016-01-18 01:12:30",1294636,14.2,323.6,6.801,1.245,10.34,101.0535,1.987,3.239,33.17,0,109.7,13.32,2.75,285.6
"2016-01-18 01:13:00",1294637,14.27,322.9,6.614,1.305,10.05,101.0614,2.007,3.239,32.97,0,109.7,13.32,2.77,284.9
"2016-01-18 01:13:30",1294638,14.04,321.5,6.637,1.218,10.13,101.0755,2.044,3.248,32.9,0,109.7,13.32,2.80,283.5
"2016-01-18 01:14:00",1294639,14.29,324.4,6.364,1.272,9.82,101.0863,2.071,3.279,32.87,0,109.7,13.33,2.83,286.4
"2016-01-18 01:14:30",1294640,14.86,321.8,7.137,1.259,10.28,101.0866,2.072,3.302,32.73,0,109.7,13.33,2.83,283.8
"2016-01-18 01:15:00",1294641,14.82,320.5,6.552,1.188,9.98,101.0934,2.089,3.3,32.67,0,109.7,13.33,2.85,282.5
"2016-01-18 01:15:30",1294642,14.67,321.8,6.443,1.316,9.92,101.0999,2.106,3.306,32.61,0,109.7,13.33,2.87,283.8
"2016-01-18 01:16:00",1294643,14.55,324.4,6.575,1.297,9.86,101.1072,2.124,3.325,32.49,0,109.7,13.33,2.88,286.4
"2016-01-18 01:16:30",1294644,14.65,324.8,6.233,1.329,10.32,101.1188,2.154,3.333,32.43,0,109.7,13.33,2.91,286.8
"2016-01-18 01:17:00",1294645,15.43,322.7,6.782,1.195,10.29,101.1205,2.158,3.384,32.43,0,109.7,13.33,2.92,284.7
"2016-01-18 01:17:30",1294646,15.04,320.9,6.861,1.402,10.11,101.1205,2.158,3.382,32.06,0,109.7,13.33,2.92,282.9
"2016-01-18 01:18:00",1294647,13.52,323.4,7.054,1.3,9.82,101.1208,2.159,3.368,32.07,0,109.7,13.33,2.92,285.4
"2016-01-18 01:18:30",1294648,13.19,324.2,6.119,1.264,9.76,101.1273,2.176,3.398,32.14,0,109.7,13.33,2.94,286.2
"2016-01-18 01:19:00",1294649,13.86,321.4,7.564,1.396,9.46,101.1336,2.192,3.402,32.4,0,109.7,13.33,2.95,283.4
"2016-01-18 01:19:30",1294650,14.49,319.2,6.549,1.225,9.83,101.1364,2.199,3.429,32.48,0,109.7,13.33,2.96,281.2
"2016-01-18 01:20:00",1294651,13.95,322.3,6.263,1.273,10.39,101.1361,2.198,3.444,32.08,0,109.7,13.33,2.96,284.3
"2016-01-18 01:20:30",1294652,15.24,320.1,6.382,1.297,9.24,101.1372,2.201,3.423,32.11,0,109.7,13.33,2.96,282.1
"2016-01-18 01:21:00",1294653,14.02,321.7,6.545,1.308,9.44,101.1369,2.2,3.425,32.49,0,109.7,13.33,2.96,283.7
"2016-01-18 01:21:30",1294654,15.09,322.2,6.727,1.715,9.72,101.1364,2.199,3.438,32.69,0,109.7,13.33,2.96,284.2
"2016-01-18 01:22:00",1294655,15.91,322.2,6.403,1.344,10.12,101.1333,2.191,3.435,32.36,0,109.7,13.33,2.95,284.2
"2016-01-18 01:22:30",1294656,15.77,323.2,6.454,1.332,10.26,101.1305,2.184,3.438,31.96,0,109.7,13.33,2.94,285.2
"2016-01-18 01:23:00",1294657,16.26,322.2,6.184,1.304,9.67,101.1313,2.186,3.463,31.96,0,109.7,13.33,2.95,284.2
"2016-01-18 01:23:30",1294658,15.94,319.6,6.546,1.266,9.95,101.1341,2.193,3.417,31.88,0,109.7,13.33,2.95,281.6
"2016-01-18 01:24:00",1294659,15.99,321.3,6.306,1.398,10.08,101.133,2.19,3.449,31.87,0,109.7,13.33,2.95,283.3
"2016-01-18 01:24:30",1294660,15.9,322.3,6.659,1.277,10.38,101.1353,2.196,3.443,31.65,0,109.7,13.33,2.96,284.3
"2016-01-18 01:25:00",1294661,15.3,324.7,6.113,1.249,10.21,101.137,2.2,3.441,31.26,0,109.7,13.33,2.96,286.7
"2016-01-18 01:25:30",1294662,14.98,322,6.331,1.22,10.46,101.1375,2.202,3.461,31.14,0,109.7,13.33,2.96,284.0
"2016-01-18 01:26:00",1294663,14.99,323.4,6.378,1.267,9.92,101.1477,2.228,3.453,31.33,0,109.7,13.33,2.99,285.4
"2016-01-18 01:26:30",1294664,16.57,323.8,6.344,1.123,10,101.1548,2.246,3.456,31.38,0,109.7,13.33,3.01,285.8
"2016-01-18 01:27:00",1294665,16.21,322.7,6.589,1.224,10.09,101.1562,2.249,3.476,31.57,0,109.7,13.33,3.01,284.7
"2016-01-18 01:27:30",1294666,15.84,321.6,6.444,1.31,9.91,101.1556,2.248,3.469,31.45,0,109.7,13.33,3.01,283.6
"2016-01-18 01:28:00",1294667,16.2,319.3,6.873,1.258,10.02,101.1556,2.248,3.473,31.28,0,109.7,13.33,3.01,281.3
"2016-01-18 01:28:30",1294668,15.42,320.6,6.905,1.252,9.79,101.1571,2.252,3.487,31.68,0,109.7,13.33,3.01,282.6
"2016-01-18 01:29:00",1294669,15.67,320.9,6.353,1.309,9.9,101.1576,2.253,3.501,31.84,0,109.7,13.33,3.01,282.9
"2016-01-18 01:29:30",1294670,16.18,320.5,6.692,1.274,10.3,101.1588,2.256,3.489,31.54,0,109.7,13.33,3.02,282.5
"2016-01-18 01:30:00",1294671,16.83,322.3,6.103,1.18,9.99,101.1559,2.249,3.523,31.52,0,109.7,13.33,3.01,284.3
"2016-01-18 01:30:30",1294672,16.66,323.2,5.97,1.265,10.09,101.1534,2.242,3.494,31.39,0,109.7,13.33,3.00,285.2
"2016-01-18 01:31:00",1294673,16.55,322.3,6.207,1.234,10.11,101.1463,2.224,3.482,31.2,0,109.7,13.33,2.98,284.3
"2016-01-18 01:31:30",1294674,16.03,320.2,6.664,1.273,9.85,101.1475,2.227,3.469,31.08,0,109.7,13.33,2.99,282.2
"2016-01-18 01:32:00",1294675,16.32,321.7,6.219,1.196,10.34,101.148,2.228,3.475,31.23,0,109.7,13.33,2.99,283.7
"2016-01-18 01:32:30",1294676,15.96,326.7,6.225,1.336,10.56,101.1509,2.236,3.499,31.23,0,109.7,13.33,3.00,288.7
"2016-01-18 01:33:00",1294677,15.38,326.8,6.676,1.286,10.36,101.1526,2.24,3.502,30.96,0,109.7,13.33,3.00,288.8
"2016-01-18 01:33:30",1294678,15.6,325.9,6.779,1.253,9.89,101.1577,2.253,3.483,31.09,0,109.7,13.34,3.01,287.9
"2016-01-18 01:34:00",1294679,16.46,321.2,6.538,1.278,9.9,101.1599,2.259,3.48,31.43,0,109.7,13.34,3.02,283.2
"2016-01-18 01:34:30",1294680,16.16,321,6.256,1.251,9.96,101.1605,2.26,3.477,31.19,0,109.7,13.33,3.02,283.0
"2016-01-18 01:35:00",1294681,16.21,323.3,6.162,1.327,10.35,101.1577,2.253,3.486,31.05,0,109.7,13.34,3.01,285.3
"2016-01-18 01:35:30",1294682,16.06,324.7,6.499,1.22,10.5,101.1588,2.256,3.498,31.02,0,109.7,13.34,3.02,286.7
"2016-01-18 01:36:00",1294683,15.84,323.3,6.448,1.352,9.85,101.1591,2.257,3.478,30.67,0,109.7,13.34,3.02,285.3
"2016-01-18 01:36:30",1294684,16.12,324.4,6.642,1.289,9.95,101.1645,2.271,3.485,30.73,0,109.7,13.34,3.03,286.4
"2016-01-18 01:37:00",1294685,15.86,324.7,6.693,1.223,10.3,101.1645,2.271,3.481,30.82,0,109.7,13.33,3.03,286.7
"2016-01-18 01:37:30",1294686,15.84,323.4,6.915,1.251,10.53,101.1645,2.271,3.483,30.7,0,109.7,13.34,3.03,285.4
"2016-01-18 01:38:00",1294687,15.77,324,6.514,1.216,10.26,101.1625,2.265,3.492,30.36,0,109.8,13.34,3.03,286.0
"2016-01-18 01:38:30",1294688,15.89,323.1,6.579,1.307,10.23,101.1671,2.277,3.508,30.42,0,109.7,13.34,3.04,285.1
"2016-01-18 01:39:00",1294689,15.53,323.7,6.393,1.281,10.11,101.1659,2.274,3.49,30.45,0,109.7,13.34,3.03,285.7
"2016-01-18 01:39:30",1294690,15.08,322.7,6.25,1.206,10.06,101.1662,2.275,3.504,30.57,0,109.7,13.33,3.03,284.7
"2016-01-18 01:40:00",1294691,14.48,323,6.514,1.273,10.01,101.1642,2.27,3.495,30.8,0,109.7,13.34,3.03,285.0
"2016-01-18 01:40:30",1294692,14.17,324.6,6.84,1.186,9.67,101.1639,2.269,3.504,30.85,0,109.6,13.34,3.03,286.6
"2016-01-18 01:41:00",1294693,14.24,326.8,7.162,1.221,10,101.1628,2.266,3.492,30.91,0,109.7,13.33,3.03,288.8
"2016-01-18 01:41:30",1294694,14.05,324.7,6.41,1.262,9.81,101.1639,2.269,3.506,30.7,0,109.7,13.34,3.03,286.7
"2016-01-18 01:42:00",1294695,14.51,321.5,6.578,1.183,9.89,101.1628,2.266,3.515,30.75,0,109.7,13.33,3.03,283.5
"2016-01-18 01:42:30",1294696,14.17,321.8,6.889,1.307,9.9,101.1645,2.271,3.515,31.17,0,109.7,13.33,3.03,283.8
"2016-01-18 01:43:00",1294697,14.89,323.7,6.307,1.342,9.59,101.1651,2.272,3.492,30.99,0,109.7,13.33,3.03,285.7
"2016-01-18 01:43:30",1294698,15.23,322.1,6.799,1.257,9.7,101.154,2.244,3.491,30.92,0,109.7,13.33,3.00,284.1
"2016-01-18 01:44:00",1294699,15,323,6.649,1.349,9.71,101.1433,2.216,3.497,31.02,0,109.7,13.33,2.98,285.0
"2016-01-18 01:44:30",1294700,15.44,323.5,6.316,1.308,9.82,101.1342,2.193,3.481,31.12,0,109.7,13.33,2.95,285.5
"2016-01-18 01:45:00",1294701,16.43,325,6.202,1.259,9.96,101.1294,2.181,3.49,31.19,0,109.7,13.33,2.94,287.0
"2016-01-18 01:45:30",1294702,15.94,328.1,6.795,1.218,9.67,101.1326,2.189,3.447,31.14,0,109.7,13.33,2.95,290.1
"2016-01-18 01:46:00",1294703,17.24,324,6.492,1.414,9.49,101.1286,2.179,3.424,31.06,0,109.7,13.33,2.94,286.0
"2016-01-18 01:46:30",1294704,16.88,320.6,8.09,1.284,9.71,101.1145,2.143,3.423,31.43,0,109.7,13.33,2.90,282.6
"2016-01-18 01:47:00",1294705,15.84,327.9,6.782,1.464,10.09,101.1037,2.115,3.416,31.42,0,109.7,13.33,2.87,289.9
"2016-01-18 01:47:30",1294706,15.14,329.3,6.524,1.262,10.25,101.0997,2.105,3.395,30.99,0,109.7,13.33,2.86,291.3
"2016-01-18 01:48:00",1294707,16.97,326,6.095,1.254,9.98,101.1,2.106,3.389,31.07,0,109.7,13.34,2.87,288.0
"2016-01-18 01:48:30",1294708,16.71,323.6,6.806,1.21,9.8,101.0932,2.089,3.362,30.86,0,109.7,13.34,2.85,285.6